Weather History for KRIW - March, 2013

Change the Weather History Date:

Sunday, March 3, 2013

  Actual Average Record
Temperature  
Mean Temperature 41 °F 30 °F  
Max Temperature 57 °F 42 °F 62 °F (2009)
Min Temperature 25 °F 19 °F 1 °F (2015)
Degree Days  
Heating Degree Days 24 34  
Month to date heating degree days 81 104  
Since 1 July heating degree days 5647 5958  
Cooling Degree Days 0 0  
Month to date cooling degree days 0 0  
Year to date cooling degree days 0 0  
Moisture  
Dew Point 23 °F    
Average Humidity 51    
Maximum Humidity 75    
Minimum Humidity 26    
Precipitation  
Precipitation 0.00 in 0.01 in 0.12 in (2015)
Month to date precipitation 0.00 0.03  
Year to date precipitation 0.65 0.54  
Snow  
Snow 0.00 in - - ()
Month to date snowfall 0.0  
Since 1 July snowfall 18.8  
Snow Depth 0.00 in    
Sea Level Pressure  
Sea Level Pressure 29.72 in    
Wind  
Wind Speed 11 mph (SW)    
Max Wind Speed 32 mph    
Max Gust Speed 39 mph    
Visibility 10 miles    
Events      
T = Trace of Precipitation, MM = Missing Value Source: NWS Daily Summary

Daily Weather History Graph

Daily Weather History Graph

Search for Another Location

Airport or City:

Trip Planner

Search our weather history database for the weather conditions in past years. The results will help you decide how hot, cold, wet, or windy it might be!

Date:

Astronomy

Mar. 03, 2013 Rise Set
Actual Time 6:46 AM MST 6:05 PM MST
Civil Twilight 6:17 AM MST 6:34 PM MST
Nautical Twilight 5:44 AM MST 7:07 PM MST
Astronomical Twilight 5:11 AM MST 7:40 PM MST
Moon No Moon Rise 9:53 AM MST (3/3)
Length of Visible Light 12h 16m
Length of Day
11h 19m
Waning Gibbous, 63% of the Moon is Illuminated
Mar 3
Waning Gibbous
Mar 4
Last Quarter
Mar 11
New
Mar 19
First Quarter
Mar 27
Full

Hourly Weather History & Observations

Time (MST) Temp. Windchill Dew Point Humidity Pressure Visibility Wind Dir Wind Speed Gust Speed Precip Events Conditions
12:53 AM 33.1 °F 26.1 °F 27.0 °F 78% 29.92 in 10.0 mi NW 8.1 mph - N/A   Clear
1:53 AM 37.0 °F - 27.0 °F 67% 29.88 in 10.0 mi Calm Calm - N/A   Clear
2:53 AM 33.1 °F 26.1 °F 26.1 °F 75% 29.85 in 10.0 mi SW 8.1 mph - N/A   Clear
3:53 AM 33.1 °F 26.1 °F 27.0 °F 78% 29.83 in 10.0 mi SW 8.1 mph - N/A   Clear
4:53 AM 35.6 °F 29.9 °F 26.6 °F 70% 29.84 in 10.0 mi SW 6.9 mph - N/A   Clear
5:53 AM 35.1 °F 30.1 °F 25.0 °F 67% 29.83 in 10.0 mi SW 5.8 mph - N/A   Clear
6:53 AM 36.0 °F 33.3 °F 25.0 °F 64% 29.81 in 10.0 mi SSW 3.5 mph - N/A   Clear
7:53 AM 35.1 °F 32.2 °F 27.0 °F 72% 29.81 in 10.0 mi WNW 3.5 mph - N/A   Clear
8:53 AM 37.9 °F - 28.9 °F 70% 29.78 in 10.0 mi Calm Calm - N/A   Clear
9:53 AM 44.1 °F - 27.0 °F 51% 29.75 in 10.0 mi Calm Calm - N/A   Clear
10:53 AM 46.0 °F 43.9 °F 32.0 °F 58% 29.72 in 10.0 mi SE 4.6 mph - N/A   Clear
11:53 AM 48.9 °F - 28.9 °F 46% 29.67 in 10.0 mi SSE 6.9 mph - N/A   Clear
12:53 PM 52.0 °F - 26.1 °F 37% 29.62 in 10.0 mi SSE 8.1 mph - N/A   Clear
1:53 PM 53.1 °F - 26.1 °F 35% 29.56 in 10.0 mi SW 13.8 mph 24.2 mph N/A   Scattered Clouds
2:53 PM 52.0 °F - 24.1 °F 34% 29.56 in 10.0 mi West 25.3 mph 31.1 mph N/A   Clear
3:53 PM 51.1 °F - 23.0 °F 33% 29.57 in 10.0 mi WSW 24.2 mph 32.2 mph N/A   Clear
4:53 PM 52.0 °F - 17.1 °F 25% 29.54 in 10.0 mi West 27.6 mph 34.5 mph N/A   Clear
5:53 PM 48.0 °F - 15.1 °F 27% 29.55 in 10.0 mi West 25.3 mph 32.2 mph N/A   Clear
6:53 PM 45.0 °F 36.9 °F 12.9 °F 27% 29.57 in 10.0 mi WSW 20.7 mph - N/A   Clear
7:53 PM 41.0 °F - 12.9 °F 32% 29.65 in 10.0 mi Calm Calm - N/A   Clear
8:53 PM 37.9 °F 30.5 °F 16.0 °F 41% 29.68 in 10.0 mi North 11.5 mph 17.3 mph N/A   Clear
9:53 PM 30.0 °F 18.7 °F 19.0 °F 64% 29.72 in 10.0 mi ENE 16.1 mph 21.9 mph N/A   Clear
10:04 PM 28.4 °F 15.4 °F 17.6 °F 64% 29.72 in 10.0 mi ENE 19.6 mph 24.2 mph N/A   Clear
10:53 PM 27.0 °F 13.5 °F 18.0 °F 69% 29.75 in 10.0 mi NE 19.6 mph 25.3 mph N/A   Clear
11:53 PM 26.1 °F 18.4 °F 17.1 °F 69% 29.81 in 10.0 mi East 6.9 mph - N/A   Scattered Clouds